Date String (YYYY-MM-DD hh:mm:ss) UTC,Instrument flags,absolute air pressure of the measurement (hPa),sample flow rate (lpm),inlet stack bypass flow (lpm),air temperature of the measurement (°C),ambient temperature measured by the external sensor (°C),aerosol sample conditioner tube jacket temperature (°C),OPC LED temperature (°C),internal box temperature (°C),relative humidity of the measurement (%),span deviation,mass concentration of particles derived from Lorenz-Mie calculation of OPC scattering (μg/m³),mass concentration of particles derived from Lorenz-Mie calculation of OPC scattering (μg/m³),mass concentration of particles derived from Lorenz-Mie calculation of OPC scattering (μg/m³)
DateTimeUTC,F1_M11,P_M11,Q1_M11,Q2_M11,T1_M11,T2_M11,T3_M11,T4_M11,T5_M11,U1_M11,ZSPAN_M11,X0_M11,X2_M11,X1_M11
2023-10-08 15:00:00,SystemResetWarning,0834.2,5.01,000.00,028.3,027.0,000.0,036.6,030.0,14.0,0000.0,0005.43,0002.75,0002.31
2023-10-08 15:01:00,SystemResetWarning,0834.2,5.00,000.00,028.3,027.0,000.0,036.7,030.0,14.1,0000.0,0005.57,0002.83,0002.35
2023-10-08 15:02:00,SystemResetWarning,0834.2,4.99,000.00,028.3,027.0,000.0,036.7,030.0,13.7,0000.0,0005.65,0002.90,0002.41
2023-10-08 15:03:00,SystemResetWarning,0834.2,4.99,000.00,028.3,027.0,000.0,036.7,030.0,13.9,0000.0,0005.71,0002.96,0002.46
2023-10-08 15:04:00,SystemResetWarning,0834.2,5.00,000.00,028.3,027.0,000.0,036.7,030.0,13.8,0000.0,0005.79,0003.02,0002.50
2023-10-08 15:05:00,SystemResetWarning,0834.2,5.01,000.00,028.4,027.1,000.0,036.7,030.1,13.9,0000.0,0005.89,0003.09,0002.54
2023-10-08 15:06:00,SystemResetWarning,0834.2,5.01,000.00,028.4,027.1,000.0,036.7,030.1,13.8,0000.0,0005.93,0003.13,0002.58
2023-10-08 15:07:00,SystemResetWarning,0834.2,5.00,000.00,028.4,027.1,000.0,036.7,030.1,13.8,0000.0,0005.95,0003.13,0002.59
2023-10-08 15:08:00,SystemResetWarning,0834.2,4.99,000.00,028.4,027.1,000.0,036.7,030.1,13.6,0000.0,0006.12,0003.15,0002.61
2023-10-08 15:09:00,SystemResetWarning,0834.2,4.99,000.00,028.4,027.2,000.0,036.7,030.1,13.6,0000.0,0005.76,0003.16,0002.63
2023-10-08 15:10:00,SystemResetWarning,0834.2,5.00,000.00,028.4,027.2,000.0,036.8,030.1,13.3,0000.0,0004.73,0003.15,0002.63
2023-10-08 15:11:00,SystemResetWarning,0834.2,5.01,000.00,028.5,027.2,000.0,036.8,030.1,13.8,0000.0,0004.78,0003.15,0002.62
2023-10-08 15:12:00,SystemResetWarning,0834.2,5.01,000.00,028.5,027.2,000.0,036.8,030.1,14.0,0000.0,0004.83,0003.16,0002.63
2023-10-08 15:13:00,SystemResetWarning,0834.2,5.01,000.00,028.5,027.2,000.0,036.8,030.1,13.6,0000.0,0004.75,0003.14,0002.61
2023-10-08 15:14:00,SystemResetWarning,0834.2,5.00,000.00,028.5,027.3,000.0,036.8,030.1,13.5,0000.0,0004.80,0003.12,0002.60
2023-10-08 15:15:00,SystemResetWarning,0834.2,5.00,000.00,028.5,027.3,000.0,036.8,030.2,13.5,0000.0,0004.97,0003.13,0002.59
2023-10-08 15:16:00,SystemResetWarning,0834.2,5.00,000.00,028.5,027.3,000.0,036.8,030.2,13.4,0000.0,0005.04,0003.10,0002.57
2023-10-08 15:17:00,SystemResetWarning,0834.2,5.00,000.00,028.5,027.3,000.0,036.8,030.2,13.4,0000.0,0006.36,0003.09,0002.56
2023-10-08 15:18:00,SystemResetWarning,0834.4,5.00,000.00,028.5,027.3,000.0,036.8,030.2,13.3,0000.0,0006.37,0003.10,0002.56
2023-10-08 15:19:00,SystemResetWarning,0834.3,5.00,000.00,028.6,027.3,000.0,036.9,030.3,13.3,0000.0,0006.19,0003.09,0002.55
2023-10-08 15:20:00,SystemResetWarning,0834.3,5.00,000.00,028.6,027.4,000.0,036.9,030.3,13.2,0000.0,0006.16,0003.06,0002.52
2023-10-08 15:21:00,SystemResetWarning,0834.5,5.00,000.00,028.6,027.4,000.0,036.9,030.3,13.5,0000.0,0006.21,0003.08,0002.52
2023-10-08 15:22:00,SystemResetWarning,0834.4,5.01,000.00,028.6,027.4,000.0,036.9,030.3,13.5,0000.0,0006.13,0003.06,0002.49
2023-10-08 15:23:00,SystemResetWarning,0834.4,5.00,000.00,028.6,027.4,000.0,036.9,030.3,13.5,0000.0,0006.59,0003.03,0002.49
2023-10-08 15:24:00,SystemResetWarning,0834.3,5.00,000.00,028.6,027.4,000.0,036.9,030.3,13.6,0000.0,0007.35,0003.03,0002.48
2023-10-08 15:25:00,SystemResetWarning,0834.5,4.99,000.00,028.7,027.4,000.0,036.9,030.3,13.7,0000.0,0007.30,0003.03,0002.48
2023-10-08 15:26:00,SystemResetWarning,0834.4,5.00,000.00,028.7,027.5,000.0,037.0,030.4,13.6,0000.0,0007.95,0003.01,0002.47
2023-10-08 15:27:00,SystemResetWarning,0834.3,5.00,000.00,028.7,027.5,000.0,037.0,030.4,13.5,0000.0,0007.93,0003.01,0002.47
2023-10-08 15:28:00,SystemResetWarning,0834.3,4.99,000.00,028.7,027.5,000.0,037.0,030.4,13.4,0000.0,0007.04,0003.00,0002.48
2023-10-08 15:29:00,SystemResetWarning,0834.5,5.00,000.00,028.7,027.5,000.0,037.0,030.4,13.9,0000.0,0007.16,0003.03,0002.50
2023-10-08 15:30:00,SystemResetWarning,0834.3,5.01,000.00,028.7,027.5,000.0,037.0,030.4,14.0,0000.0,0007.70,0003.04,0002.51
2023-10-08 15:31:00,SystemResetWarning,0834.4,5.00,000.00,028.8,027.6,000.0,037.1,030.4,14.0,0000.0,0007.77,0003.08,0002.52
2023-10-08 15:32:00,SystemResetWarning,0834.4,5.00,000.00,028.8,027.6,000.0,037.1,030.4,14.2,0000.0,0008.01,0003.12,0002.54
2023-10-08 15:33:00,SystemResetWarning,0834.5,5.00,000.00,028.8,027.6,000.0,037.1,030.4,14.0,0000.0,0008.04,0003.10,0002.54
2023-10-08 15:34:00,SystemResetWarning,0834.6,4.99,000.00,028.8,027.6,000.0,037.1,030.5,14.8,0000.0,0007.77,0003.07,0002.54
2023-10-08 15:35:00,SystemResetWarning,0834.4,5.00,000.00,028.8,027.6,000.0,037.1,030.5,14.6,0000.0,0007.34,0003.10,0002.55
2023-10-08 15:36:00,SystemResetWarning,0834.3,5.00,000.00,028.8,027.7,000.0,037.1,030.5,14.7,0000.0,0007.32,0003.11,0002.54
2023-10-08 15:37:00,SystemResetWarning,0834.6,5.00,000.00,028.9,027.7,000.0,037.2,030.5,14.8,0000.0,0006.22,0003.11,0002.54
2023-10-08 15:38:00,SystemResetWarning,0834.4,5.01,000.00,028.9,027.7,000.0,037.2,030.5,14.8,0000.0,0005.93,0003.10,0002.54
2023-10-08 15:39:00,SystemResetWarning,0834.3,5.01,000.00,028.9,027.7,000.0,037.2,030.6,14.8,0000.0,0006.06,0003.09,0002.52
2023-10-08 15:40:00,SystemResetWarning,0834.4,5.00,000.00,028.9,027.8,000.0,037.2,030.6,14.4,0000.0,0006.02,0003.07,0002.51
2023-10-08 15:41:00,SystemResetWarning,0834.6,5.00,000.00,028.9,027.8,000.0,037.2,030.6,14.5,0000.0,0005.40,0003.04,0002.49
2023-10-08 15:42:00,SystemResetWarning,0834.6,5.00,000.00,029.0,027.8,000.0,037.3,030.6,14.6,0000.0,0005.34,0003.03,0002.48
2023-10-08 15:43:00,SystemResetWarning,0834.4,5.00,000.00,029.0,027.9,000.0,037.3,030.6,14.5,0000.0,0005.42,0002.98,0002.47
2023-10-08 15:44:00,SystemResetWarning,0834.5,5.00,000.00,029.0,027.9,000.0,037.3,030.7,14.4,0000.0,0007.18,0002.99,0002.47
2023-10-08 15:45:00,SystemResetWarning,0834.4,5.00,000.00,029.0,027.9,000.0,037.3,030.7,14.2,0000.0,0008.07,0003.07,0002.47
2023-10-08 15:46:00,SystemResetWarning,0834.6,5.01,000.00,029.0,027.9,000.0,037.3,030.7,14.0,0000.0,0008.07,0003.08,0002.49
2023-10-08 15:47:00,SystemResetWarning,0834.6,5.01,000.00,029.1,027.9,000.0,037.4,030.7,14.7,0000.0,0008.07,0003.08,0002.50
2023-10-08 15:48:00,SystemResetWarning,0834.4,5.01,000.00,029.1,028.0,000.0,037.4,030.7,14.6,0000.0,0008.04,0003.07,0002.51
2023-10-08 15:49:00,SystemResetWarning,0834.6,5.00,000.00,029.1,028.0,000.0,037.4,030.8,14.3,0000.0,0008.20,0003.10,0002.51
2023-10-08 15:50:00,SystemResetWarning,0834.6,5.00,000.00,029.1,028.0,000.0,037.4,030.8,14.1,0000.0,0008.20,0003.12,0002.53
2023-10-08 15:51:00,SystemResetWarning,0834.4,5.00,000.00,027.0,027.5,000.0,036.5,028.6,14.4,0000.0,0008.50,0003.13,0002.53
2023-10-08 15:52:00,SystemResetWarning,0834.2,5.00,000.00,029.2,028.1,000.0,037.5,030.8,14.8,0000.0,0008.91,0003.13,0002.54
2023-10-08 15:53:00,SystemResetWarning,0834.4,5.00,000.00,029.2,028.1,000.0,037.5,030.8,14.7,0000.0,0009.03,0003.16,0002.54
2023-10-08 15:54:00,SystemResetWarning,0834.3,5.00,000.00,029.2,028.1,000.0,037.5,030.8,14.5,0000.0,0008.81,0003.17,0002.55
2023-10-08 15:55:00,SystemResetWarning,0834.3,5.00,000.00,029.2,028.1,000.0,037.5,030.9,14.4,0000.0,0007.48,0003.15,0002.57
2023-10-08 15:56:00,SystemResetWarning,0834.3,4.99,000.00,029.3,028.1,000.0,037.5,030.9,14.3,0000.0,0006.80,0003.15,0002.58
2023-10-08 15:57:00,SystemResetWarning,0834.3,5.00,000.00,029.3,028.2,000.0,037.6,030.9,14.2,0000.0,0007.59,0003.14,0002.57
2023-10-08 15:58:00,SystemResetWarning,0834.3,4.99,000.00,029.3,028.2,000.0,037.6,030.9,13.9,0000.0,0007.74,0003.14,0002.56
2023-10-08 15:59:00,SystemResetWarning,0834.3,5.00,000.00,029.3,028.2,000.0,037.6,030.9,14.0,0000.0,0007.85,0003.17,0002.56
